Regional Weather Roundup
Issued by NWS Charleston, WV

Home | Current Version | Previous Version | Text Only | Print | Product List | Glossary On
Versions: 1 2 3 4 5 6 7 8 9 10 11 12 13 14 15 16 17 18 19 20 21 22 23 24 25 26 27 28 29 30 31 32 33 34 35 36 37 38 39 40 41 42 43 44 45 46 47 48 49
000
ASUS41 KRLX 040210
RWRRLX
West Virginia Regional Weather Roundup
National Weather Service Charleston WV
1000 PM EDT THU SEP 03 2015

Note: "fair" indicates few or no clouds below 12,000 feet with no
significant weather and/or obstructions to visibility.

WVZ003-040300-
Northern Panhandle of West Virginia

CITY           SKY/WX    TMP DP  RH WIND       PRES   REMARKS
WHEELING       CLOUDY    69  67  93 W3        30.00R FOG
$$

WVZ009-040300-
Northwest West Virginia

CITY           SKY/WX    TMP DP  RH WIND       PRES   REMARKS
PARKERSBURG    PTCLDY    68  66  93 CALM      30.02R
$$

WVZ006-040300-
Western West Virginia

CITY           SKY/WX    TMP DP  RH WIND       PRES   REMARKS
HUNTINGTON     CLEAR     73  67  81 CALM      29.99R
$$

WVZ015-040300-
West Central West Virginia

CITY           SKY/WX    TMP DP  RH WIND       PRES   REMARKS
CHARLESTON     CLEAR     74  70  87 CALM      29.99R
$$

WVZ022-031-040300-
North Central West Virginia

CITY           SKY/WX    TMP DP  RH WIND       PRES   REMARKS
CLARKSBURG     PTCLDY    66  65  96 NE3       30.01R FOG
MORGANTOWN     MOCLDY    72  66  81 S3        30.01R
$$

WVZ025-035-042-045-040300-
Southern West Virginia

CITY           SKY/WX    TMP DP  RH WIND       PRES   REMARKS
BECKLEY        MOCLDY    70  64  81 CALM      30.08R
LOGAN            N/A     73  70  88 CALM      30.03R
BLUEFIELD      PTCLDY    71  61  70 CALM      30.11R
LEWISBURG      CLEAR     68  64  87 CALM      30.07R
$$

WVZ047-040300-
Northern Mountains of West Virginia

CITY           SKY/WX    TMP DP  RH WIND       PRES   REMARKS
ELKINS         MOCLDY    70  66  87 CALM      30.06R
$$

WVZ052-040300-
Eastern Panhandle of West Virginia

CITY           SKY/WX    TMP DP  RH WIND       PRES   REMARKS
MARTINSBURG    MOCLDY    75  66  73 CALM      29.93R
PETERSBURG     MOCLDY    70  69  97 CALM      29.99R FOG
$$


USA.gov is the U.S. government's official web portal to all federal, state and local government web resources and services.